Regional Weather Roundup
Issued by NWS Cleveland, OH

Home | Current Version | Previous Version | Text Only | Print | Product List | Glossary Off
Versions: 1 2 3 4 5 6 7 8 9 10 11 12 13 14 15 16 17 18 19 20 21 22 23 24 25 26 27 28 29 30 31 32 33 34 35 36 37 38 39 40 41 42 43 44 45 46 47 48 49 50

000
ASUS41 KCLE 252300
RWRCLE
OHIO REGIONAL WEATHER ROUNDUP
NATIONAL WEATHER SERVICE WILMINGTON, OH
600 PM EST SUN JAN 25 2015

NOTE: "FAIR" INDICATES FEW OR NO CLOUDS BELOW 12,000 FEET WITH NO
SIGNIFICANT WEATHER AND/OR OBSTRUCTIONS TO VISIBILITY.

OHZ001>008-015>018-024>027-034-035-043-044-260000-
   NORTHWEST OHIO

CITY           SKY/WX    TMP DP  RH WIND       PRES   REMARKS
DEFIANCE       LGT SNOW  21  17  84 NE13      29.87R VSB 3/4 WCI   9
FINDLAY        LGT SNOW  22  18  85 NE21G29   29.82R VSB 3/4 WCI   6
TOLEDO EXPRESS LGT SNOW  19  14  81 NE20G25   29.89R WCI   3
TOLEDO EXEC    LGT SNOW  19  12  74 NE14G25   29.91R WCI   6
LIMA           LGT SNOW  23  19  85 NE17      29.78R VSB 3/4 WCI   9
$$

OHZ009>014-019>023-028>033-038-089-260000-
   NORTHEAST OHIO

CITY           SKY/WX    TMP DP  RH WIND       PRES   REMARKS
CLE-HOPKINS    LGT SNOW  22  18  85 NE17      29.89R FOG     WCI   8
CLE-LAKEFRONT  LGT SNOW  22  16  78 NE15      29.88R WCI   9
CUY CO. ARPT   CLOUDY    23  18  80 NE15      29.88R WCI  10
LORAIN-ELYRIA  LGT SNOW  21  17  84 NE18      29.86R FOG     WCI   6
ASHTABULA      CLOUDY    19  12  74 NE8       29.89R WCI   9
AKRON-CANTON   LGT SNOW  26  21  81 NE14      29.79R VSB 3/4 WCI  14
WOOSTER        LGT SNOW  25  23  92 NE13      29.80R VSB 1   WCI  14
MANSFIELD      LGT SNOW  23  21  92 N10       29.77R FOG     WCI  12
YOUNGSTOWN     LGT SNOW  24  20  84 N10       29.82S FOG     WCI  14
$$

OHZ042-051>053-060>062-070>072-077>081-260000-
  SOUTHWEST OHIO

CITY           SKY/WX    TMP DP  RH WIND       PRES   REMARKS
CINC-COVINGTON LGT RAIN  39  36  89 E3        29.66R FOG
CINC-LUNKEN    LGT RAIN  39  38  96 NE6       29.68S FOG
HAMILTON       LGT RAIN  39  38  96 E3        29.69R FOG
DAYTON         NOT AVBL
WRIGHT-PAT AFB LGT RAIN  36  34  93 NE8       29.70R FOG
DAYTON GENERAL LGT RAIN  37  36  96 E5        29.67R FOG
WILMINGTON     LGT RAIN  36  33  89 E9        29.67S FOG
$$

OHZ036-037-039>041-045>050-054>059-063>069-073>076-082>088-260000-
  CENTRAL AND SOUTHEAST OHIO

CITY           SKY/WX    TMP DP  RH WIND       PRES   REMARKS
COLUMBUS       LGT RAIN  34  31  88 E5        29.72S VSB 1   WCI  30
OSU AIRPORT    LGT SNOW  33  31  92 NE7       29.72S FOG     WCI  27
BOLTON FIELD   NOT AVBL
RICKENBACK AFB NOT AVBL
NEWARK         LGT SNOW  34  32  92 NE6       29.73F FOG     WCI  29
MARION         LGT SNOW  24  20  84 NE20      29.78R FOG     WCI  10
LANCASTER      LGT RAIN  36  34  92 E6        29.72F FOG
ZANESVILLE     LGT SNOW  32  31  96 NE3       29.75S VSB 3/4
NEW PHILLY     LGT SNOW  33  29  85 NE7       29.78S FOG     WCI  27
$$


USA.gov is the U.S. government's official web portal to all federal, state and local government web resources and services.